Station Historical Data
 
Daily Summary for July 23, 2019 Units:  English    Metric   Both
Next Day »
Daily Weekly Monthly Yearly Custom
  Current: High: Low: Average:
Temperature: 76.8 °F 87.5 °F 69.9 °F 77 °F
Dew Point: 52.63 °F 63.56 °F 47.06 °F 56.1 °F
Humidity: 43% 62% 27% 50%
Wind Speed: 0mph 13mph 0mph 3mph
Wind Gust: 0mph 18mph - -
WindCalm - - SSE
Pressure: 29.96 in 29.97 in 29.92 in -
Precipitation: 0 in      
Historical Graphs
 
 
Tabular Data for July 23, 2019
Time Temperature Dew Point Pressure Wind Wind Speed Wind Gust Humidity Rainfall Rate (Hourly) solar Conditions
00:04 71.9 °F 57.74 °F 29.95 in ESE 4 mph 4 mph 61% 0 in 0.00 W/m2
00:09 71.9 °F 57.74 °F 29.94 in ESE 1 mph 6 mph 61% 0 in 0.00 W/m2
00:14 71.9 °F 57.74 °F 29.94 in ESE 4 mph 7 mph 61% 0 in 0.00 W/m2
00:19 71.8 °F 57.64 °F 29.94 in Calm   5 mph 61% 0 in 0.00 W/m2
00:24 71.8 °F 57.64 °F 29.94 in Calm   7 mph 61% 0 in 0.00 W/m2
00:29 71.7 °F 57.55 °F 29.94 in ESE 4 mph 5 mph 61% 0 in 0.00 W/m2
00:34 71.7 °F 57.55 °F 29.94 in ESE 1 mph 5 mph 61% 0 in 0.00 W/m2
00:39 71.6 °F 57.45 °F 29.94 in ESE 4 mph 6 mph 61% 0 in 0.00 W/m2
00:44 71.5 °F 57.36 °F 29.94 in ESE 5 mph 6 mph 61% 0 in 0.00 W/m2
00:49 71.4 °F 57.27 °F 29.94 in Calm   4 mph 61% 0 in 0.00 W/m2
00:54 71.3 °F 57.17 °F 29.94 in Calm   2 mph 61% 0 in 0.00 W/m2
00:59 71.2 °F 57.08 °F 29.94 in Calm   7 mph 61% 0 in 0.00 W/m2
01:04 71.1 °F 56.98 °F 29.94 in Calm   5 mph 61% 0 in 0.00 W/m2
01:09 71.1 °F 57.43 °F 29.94 in ESE 6 mph 7 mph 62% 0 in 0.00 W/m2
01:14 71 °F 57.34 °F 29.93 in ESE 2 mph 6 mph 62% 0 in 0.00 W/m2
01:19 71 °F 57.34 °F 29.93 in Calm   9 mph 62% 0 in 0.00 W/m2
01:24 71 °F 56.89 °F 29.93 in ESE 2 mph 6 mph 61% 0 in 0.00 W/m2
01:29 70.9 °F 57.25 °F 29.93 in ESE 2 mph 6 mph 62% 0 in 0.00 W/m2
01:34 70.9 °F 56.79 °F 29.93 in ESE 2 mph 4 mph 61% 0 in 0.00 W/m2
01:39 70.8 °F 57.15 °F 29.93 in ESE 7 mph 7 mph 62% 0 in 0.00 W/m2
01:44 70.8 °F 57.15 °F 29.94 in Calm   7 mph 62% 0 in 0.00 W/m2
01:49 70.7 °F 57.06 °F 29.94 in ESE 1 mph 8 mph 62% 0 in 0.00 W/m2
01:54 70.7 °F 57.06 °F 29.93 in Calm   8 mph 62% 0 in 0.00 W/m2
01:59 70.6 °F 56.96 °F 29.93 in ESE 2 mph 9 mph 62% 0 in 0.00 W/m2
02:04 70.4 °F 56.77 °F 29.93 in ESE 2 mph 6 mph 62% 0 in 0.00 W/m2
02:09 70.3 °F 56.68 °F 29.93 in ESE 11 mph 11 mph 62% 0 in 0.00 W/m2
02:14 70.2 °F 56.59 °F 29.93 in ESE 2 mph 9 mph 62% 0 in 0.00 W/m2
02:19 70.1 °F 56.49 °F 29.93 in East 2 mph 13 mph 62% 0 in 0.00 W/m2
02:24 70 °F 56.4 °F 29.93 in ESE 1 mph 8 mph 62% 0 in 0.00 W/m2
02:29 69.9 °F 56.3 °F 29.93 in ESE 13 mph 13 mph 62% 0 in 0.00 W/m2
02:34 69.9 °F 56.3 °F 29.93 in Calm   12 mph 62% 0 in 0.00 W/m2
02:39 69.9 °F 56.3 °F 29.93 in ESE 1 mph 6 mph 62% 0 in 0.00 W/m2
02:44 69.9 °F 56.3 °F 29.92 in ESE 8 mph 9 mph 62% 0 in 0.00 W/m2
02:49 69.9 °F 56.3 °F 29.92 in ESE 8 mph 13 mph 62% 0 in 0.00 W/m2
02:54 69.9 °F 56.3 °F 29.92 in East 2 mph 9 mph 62% 0 in 0.00 W/m2
02:59 70 °F 56.4 °F 29.92 in ESE 2 mph 15 mph 62% 0 in 0.00 W/m2
03:04 70 °F 55.95 °F 29.92 in ESE 8 mph 12 mph 61% 0 in 0.00 W/m2
03:09 70 °F 55.95 °F 29.92 in East 4 mph 12 mph 61% 0 in 0.00 W/m2
03:14 70.1 °F 56.04 °F 29.92 in ESE 13 mph 14 mph 61% 0 in 0.00 W/m2
03:19 70.2 °F 55.68 °F 29.92 in Calm   7 mph 60% 0 in 0.00 W/m2
03:24 70.3 °F 55.77 °F 29.92 in Calm   9 mph 60% 0 in 0.00 W/m2
03:29 70.4 °F 55.87 °F 29.92 in Calm   18 mph 60% 0 in 0.00 W/m2
03:34 70.4 °F 55.87 °F 29.92 in East 8 mph 13 mph 60% 0 in 0.00 W/m2
03:39 70.5 °F 55.5 °F 29.92 in ESE 2 mph 8 mph 59% 0 in 0.00 W/m2
03:44 70.6 °F 56.06 °F 29.92 in ESE 1 mph 8 mph 60% 0 in 0.00 W/m2
03:49 70.6 °F 56.06 °F 29.92 in ESE 6 mph 11 mph 60% 0 in 0.00 W/m2
03:54 70.5 °F 55.5 °F 29.92 in ESE 7 mph 9 mph 59% 0 in 0.00 W/m2
03:59 70.6 °F 55.59 °F 29.92 in ESE 12 mph 13 mph 59% 0 in 0.00 W/m2
04:05 70.6 °F 55.59 °F 29.92 in ESE 5 mph 12 mph 59% 0 in 0.00 W/m2
04:09 70.6 °F 55.59 °F 29.92 in ESE 2 mph 12 mph 59% 0 in 0.00 W/m2
04:14 70.6 °F 55.12 °F 29.92 in East 4 mph 13 mph 58% 0 in 0.00 W/m2
04:19 70.6 °F 55.12 °F 29.92 in Calm   11 mph 58% 0 in 0.00 W/m2
04:24 70.6 °F 55.12 °F 29.92 in ESE 12 mph 13 mph 58% 0 in 0.00 W/m2
04:29 70.6 °F 55.12 °F 29.93 in ESE 1 mph 13 mph 58% 0 in 0.00 W/m2
04:34 70.6 °F 55.12 °F 29.93 in ESE 2 mph 11 mph 58% 0 in 0.00 W/m2
04:39 70.6 °F 55.12 °F 29.93 in ESE 6 mph 9 mph 58% 0 in 0.00 W/m2
04:44 70.6 °F 55.12 °F 29.93 in Calm   13 mph 58% 0 in 0.00 W/m2
04:49 70.5 °F 55.03 °F 29.92 in Calm   8 mph 58% 0 in 0.00 W/m2
04:54 70.4 °F 54.93 °F 29.93 in Calm   9 mph 58% 0 in 0.00 W/m2
04:59 70.4 °F 55.4 °F 29.93 in ESE 1 mph 9 mph 59% 0 in 0.00 W/m2
05:04 70.3 °F 54.84 °F 29.93 in Calm   14 mph 58% 0 in 0.00 W/m2
05:09 70.3 °F 54.84 °F 29.93 in ESE 7 mph 13 mph 58% 0 in 0.00 W/m2
05:14 70.2 °F 54.75 °F 29.93 in East 9 mph 18 mph 58% 0 in 0.00 W/m2
05:19 70.2 °F 54.75 °F 29.93 in ESE 7 mph 12 mph 58% 0 in 0.00 W/m2
05:24 70.1 °F 54.65 °F 29.93 in ESE 4 mph 8 mph 58% 0 in 0.00 W/m2
05:29 70.1 °F 54.65 °F 29.93 in East 1 mph 11 mph 58% 0 in 0.00 W/m2
05:34 70 °F 54.56 °F 29.93 in ESE 5 mph 15 mph 58% 0 in 0.00 W/m2
05:39 70 °F 54.56 °F 29.94 in ESE 1 mph 12 mph 58% 0 in 0.00 W/m2
05:44 70 °F 54.56 °F 29.94 in ESE 5 mph 13 mph 58% 0 in 0.00 W/m2
05:48 69.9 °F 54.47 °F 29.94 in ESE 5 mph 6 mph 58% 0 in 0.00 W/m2
05:54 69.9 °F 53.99 °F 29.94 in ESE 7 mph 14 mph 57% 0 in 5.00 W/m2
05:59 69.9 °F 53.99 °F 29.94 in East 7 mph 13 mph 57% 0 in 5.00 W/m2
06:04 69.9 °F 53.99 °F 29.94 in East 2 mph 15 mph 57% 0 in 9.00 W/m2
06:09 69.9 °F 53.99 °F 29.94 in ESE 2 mph 8 mph 57% 0 in 11.00 W/m2
06:14 69.9 °F 53.99 °F 29.94 in ESE 1 mph 8 mph 57% 0 in 12.00 W/m2
06:19 69.9 °F 53.99 °F 29.94 in ESE 2 mph 8 mph 57% 0 in 14.00 W/m2
06:24 69.9 °F 53.99 °F 29.94 in East 8 mph 13 mph 57% 0 in 21.00 W/m2
06:29 69.9 °F 53.99 °F 29.94 in ESE 1 mph 15 mph 57% 0 in 18.00 W/m2
06:34 69.9 °F 53.99 °F 29.94 in East 8 mph 12 mph 57% 0 in 42.00 W/m2
06:39 69.9 °F 53.99 °F 29.95 in East 4 mph 12 mph 57% 0 in 65.00 W/m2
06:44 69.9 °F 53.99 °F 29.95 in Calm   12 mph 57% 0 in 74.00 W/m2
06:49 69.9 °F 53.99 °F 29.95 in East 5 mph 7 mph 57% 0 in 81.00 W/m2
06:54 69.9 °F 53.99 °F 29.95 in ESE 12 mph 13 mph 57% 0 in 105.00 W/m2
06:59 69.9 °F 53.99 °F 29.95 in Calm   11 mph 57% 0 in 116.00 W/m2
07:04 69.9 °F 54.47 °F 29.95 in Calm   9 mph 58% 0 in 132.00 W/m2
07:09 69.9 °F 54.47 °F 29.95 in East 7 mph 12 mph 58% 0 in 155.00 W/m2
07:14 69.9 °F 54.47 °F 29.95 in ESE 6 mph 11 mph 58% 0 in 169.00 W/m2
07:19 69.9 °F 54.94 °F 29.95 in ESE 4 mph 16 mph 59% 0 in 190.00 W/m2
07:24 69.9 °F 54.94 °F 29.95 in East 6 mph 12 mph 59% 0 in 199.00 W/m2
07:29 69.9 °F 54.94 °F 29.95 in East 12 mph 12 mph 59% 0 in 213.00 W/m2
07:34 69.9 °F 54.94 °F 29.95 in Calm   11 mph 59% 0 in 234.00 W/m2
07:39 69.9 °F 54.94 °F 29.96 in Calm   11 mph 59% 0 in 250.00 W/m2
07:44 70 °F 55.49 °F 29.96 in ESE 13 mph 14 mph 60% 0 in 265.00 W/m2
07:49 70 °F 55.49 °F 29.96 in East 2 mph 6 mph 60% 0 in 295.00 W/m2
07:54 70.1 °F 56.04 °F 29.96 in Calm   15 mph 61% 0 in 360.00 W/m2
07:59 70.2 °F 56.14 °F 29.96 in Calm   15 mph 61% 0 in 394.00 W/m2
08:04 70.4 °F 56.32 °F 29.96 in ESE 13 mph 14 mph 61% 0 in 178.00 W/m2
08:09 70.6 °F 56.51 °F 29.96 in ESE 4 mph 9 mph 61% 0 in 225.00 W/m2
08:14 70.8 °F 56.24 °F 29.96 in Calm   12 mph 60% 0 in 79.00 W/m2
08:19 71 °F 56.43 °F 29.96 in Calm   5 mph 60% 0 in 95.00 W/m2
08:24 71.1 °F 56.06 °F 29.96 in ESE 1 mph 7 mph 59% 0 in 88.00 W/m2
08:29 71.2 °F 56.62 °F 29.96 in ESE 4 mph 11 mph 60% 0 in 156.00 W/m2
08:34 71.2 °F 56.62 °F 29.96 in ESE 11 mph 14 mph 60% 0 in 262.00 W/m2
08:39 71.2 °F 57.08 °F 29.96 in ESE 4 mph 9 mph 61% 0 in 468.00 W/m2
08:44 71.3 °F 57.17 °F 29.96 in ESE 4 mph 11 mph 61% 0 in 517.00 W/m2
08:49 71.4 °F 57.72 °F 29.96 in ESE 7 mph 11 mph 62% 0 in 527.00 W/m2
08:54 71.6 °F 57.91 °F 29.96 in ESE 2 mph 11 mph 62% 0 in 503.00 W/m2
08:59 71.9 °F 58.19 °F 29.96 in Calm   12 mph 62% 0 in 432.00 W/m2
09:04 72.3 °F 58.57 °F 29.96 in Calm   14 mph 62% 0 in 529.00 W/m2
09:09 72.7 °F 58.49 °F 29.96 in ESE 5 mph 5 mph 61% 0 in 543.00 W/m2
09:14 73.1 °F 58.4 °F 29.96 in ESE 6 mph 6 mph 60% 0 in 589.00 W/m2
09:19 73.5 °F 58.78 °F 29.96 in Calm   12 mph 60% 0 in 631.00 W/m2
09:24 73.8 °F 59.06 °F 29.96 in Calm   5 mph 60% 0 in 385.00 W/m2
09:29 74.2 °F 58.49 °F 29.96 in Calm   4 mph 58% 0 in 255.00 W/m2
09:34 74.6 °F 59.81 °F 29.96 in Calm   2 mph 60% 0 in 559.00 W/m2
09:39 75 °F 59.72 °F 29.96 in Calm   4 mph 59% 0 in 339.00 W/m2
09:44 75.3 °F 59.03 °F 29.96 in ESE 4 mph 4 mph 57% 0 in 698.00 W/m2
09:49 75.6 °F 58.82 °F 29.96 in ESE 1 mph 7 mph 56% 0 in 253.00 W/m2
09:54 75.9 °F 59.1 °F 29.96 in ESE 5 mph 5 mph 56% 0 in 443.00 W/m2
09:59 76.1 °F 59.28 °F 29.96 in ESE 4 mph 4 mph 56% 0 in 664.00 W/m2
10:04 76.4 °F 59.56 °F 29.96 in Calm   2 mph 56% 0 in 225.00 W/m2
10:09 76.7 °F 59.84 °F 29.96 in Calm     56% 0 in 272.00 W/m2
10:14 76.8 °F 60.43 °F 29.97 in Calm   6 mph 57% 0 in 230.00 W/m2
10:19 77 °F 60.62 °F 29.97 in ESE 5 mph 5 mph 57% 0 in 244.00 W/m2
10:24 77 °F 61.59 °F 29.97 in Calm     59% 0 in 267.00 W/m2
10:29 77 °F 62.53 °F 29.96 in Calm   5 mph 61% 0 in 306.00 W/m2
10:34 77 °F 62.53 °F 29.97 in Calm     61% 0 in 360.00 W/m2
10:40 76.9 °F 62.44 °F 29.97 in Calm   4 mph 61% 0 in 640.00 W/m2
10:44 76.9 °F 62.9 °F 29.97 in Calm     62% 0 in 401.00 W/m2
10:49 77 °F 63 °F 29.97 in Calm     62% 0 in 798.00 W/m2
10:54 77.2 °F 60.31 °F 29.97 in Calm   5 mph 56% 0 in 807.00 W/m2
10:59 77.6 °F 63.56 °F 29.97 in ESE 4 mph 7 mph 62% 0 in 545.00 W/m2
11:05 78 °F 61.55 °F 29.97 in SE 5 mph 7 mph 57% 0 in 380.00 W/m2
11:09 78.4 °F 62.42 °F 29.97 in Calm   1 mph 58% 0 in 323.00 W/m2
11:14 78.7 °F 62.7 °F 29.97 in Calm     58% 0 in 436.00 W/m2
11:19 78.9 °F 63.37 °F 29.97 in Calm   2 mph 59% 0 in 949.00 W/m2
11:24 78.9 °F 62.39 °F 29.97 in SE 1 mph 1 mph 57% 0 in 492.00 W/m2
11:29 79 °F 61.47 °F 29.97 in Calm     55% 0 in 341.00 W/m2
11:34 79 °F 62.48 °F 29.97 in SE 4 mph 8 mph 57% 0 in 835.00 W/m2
11:39 79.1 °F 62.07 °F 29.97 in Calm   4 mph 56% 0 in 935.00 W/m2
11:45 79.3 °F 60.7 °F 29.97 in Calm   1 mph 53% 0 in 940.00 W/m2
11:49 79.8 °F 62.72 °F 29.97 in SE 2 mph 4 mph 56% 0 in 780.00 W/m2
11:54 80.3 °F 62.16 °F 29.97 in SE 1 mph 4 mph 54% 0 in 867.00 W/m2
11:59 80.9 °F 62.18 °F 29.97 in SSW 10 mph 10 mph 53% 0 in 854.00 W/m2
12:04 81.4 °F 60.43 °F 29.97 in SW 6 mph 7 mph 49% 0 in 833.00 W/m2
12:09 81.9 °F 60.88 °F 29.97 in SW 7 mph 10 mph 49% 0 in 833.00 W/m2
12:14 82.3 °F 61.25 °F 29.97 in SW 2 mph 2 mph 49% 0 in 837.00 W/m2
12:19 82.7 °F 61.03 °F 29.97 in Calm   9 mph 48% 0 in 838.00 W/m2
12:25 83.2 °F 61.49 °F 29.97 in SSW 6 mph 10 mph 48% 0 in 842.00 W/m2
12:29 83.8 °F 62.04 °F 29.97 in Calm   10 mph 48% 0 in 846.00 W/m2
12:34 84.2 °F 59.3 °F 29.97 in Calm   6 mph 43% 0 in 846.00 W/m2
12:39 84.7 °F 59.75 °F 29.97 in SSW 8 mph 9 mph 43% 0 in 846.00 W/m2
12:44 85.2 °F 58.87 °F 29.97 in Calm     41% 0 in 847.00 W/m2
12:49 85.7 °F 60.65 °F 29.97 in SW 3 mph 3 mph 43% 0 in 849.00 W/m2
12:54 86 °F 60.26 °F 29.97 in Calm   13 mph 42% 0 in 847.00 W/m2
12:59 86.5 °F 60.71 °F 29.97 in South 3 mph 11 mph 42% 0 in 847.00 W/m2
13:04 87 °F 59.07 °F 29.97 in Calm   3 mph 39% 0 in 846.00 W/m2
13:09 87.3 °F 59.34 °F 29.97 in WSW 1 mph 8 mph 39% 0 in 851.00 W/m2
13:14 86.5 °F 58.63 °F 29.97 in SSW 7 mph 10 mph 39% 0 in 847.00 W/m2
13:19 86 °F 59.58 °F 29.97 in SW 2 mph 6 mph 41% 0 in 844.00 W/m2
13:24 85.8 °F 58.71 °F 29.97 in SSW 2 mph 7 mph 40% 0 in 840.00 W/m2
13:29 86.1 °F 60.35 °F 29.96 in West 4 mph 8 mph 42% 0 in 842.00 W/m2
13:34 86 °F 57.46 °F 29.96 in SW 6 mph 10 mph 38% 0 in 838.00 W/m2
13:39 86.3 °F 57.73 °F 29.96 in SSW 8 mph 9 mph 38% 0 in 838.00 W/m2
13:44 86.8 °F 56.67 °F 29.97 in Calm   10 mph 36% 0 in 835.00 W/m2
13:49 87.2 °F 57.02 °F 29.97 in SSW 10 mph 16 mph 36% 0 in 831.00 W/m2
13:54 87.4 °F 55.62 °F 29.97 in SW 1 mph 8 mph 34% 0 in 828.00 W/m2
13:59 87.3 °F 56.33 °F 29.97 in SW 7 mph 9 mph 35% 0 in 824.00 W/m2
14:04 87.3 °F 56.33 °F 29.97 in SSW 2 mph 11 mph 35% 0 in 821.00 W/m2
14:09 87.5 °F 58.05 °F 29.97 in Calm   7 mph 37% 0 in 816.00 W/m2
14:14 86.9 °F 55.18 °F 29.97 in Calm   8 mph 34% 0 in 814.00 W/m2
14:19 86.7 °F 54.19 °F 29.97 in WSW 7 mph 11 mph 33% 0 in 810.00 W/m2
14:24 86.9 °F 54.36 °F 29.97 in SSW 7 mph 13 mph 33% 0 in 802.00 W/m2
14:29 86.9 °F 55.98 °F 29.97 in SW 9 mph 11 mph 35% 0 in 795.00 W/m2
14:34 86.8 °F 54.27 °F 29.97 in Calm   6 mph 33% 0 in 788.00 W/m2
14:39 86.4 °F 56.32 °F 29.97 in Calm   12 mph 36% 0 in 731.00 W/m2
14:44 86.3 °F 54.66 °F 29.97 in SSW 3 mph 9 mph 34% 0 in 780.00 W/m2
14:49 86.5 °F 53.17 °F 29.97 in South 7 mph 10 mph 32% 0 in 729.00 W/m2
14:54 86.7 °F 53.35 °F 29.97 in SSW 2 mph 14 mph 32% 0 in 756.00 W/m2
14:59 86.9 °F 53.52 °F 29.97 in South 7 mph 7 mph 32% 0 in 759.00 W/m2
15:04 87 °F 54.45 °F 29.97 in SW 1 mph 7 mph 33% 0 in 752.00 W/m2
15:09 86.8 °F 53.43 °F 29.97 in WSW 4 mph 7 mph 32% 0 in 742.00 W/m2
15:14 86.8 °F 54.27 °F 29.97 in Calm   7 mph 33% 0 in 738.00 W/m2
15:19 86.8 °F 53.43 °F 29.97 in South 10 mph 13 mph 32% 0 in 721.00 W/m2
15:24 86.8 °F 55.89 °F 29.97 in SW 2 mph 2 mph 35% 0 in 721.00 W/m2
15:29 86.6 °F 54.1 °F 29.96 in Calm   10 mph 33% 0 in 659.00 W/m2
15:34 86.5 °F 53.17 °F 29.96 in SSW 2 mph 9 mph 32% 0 in 659.00 W/m2
15:39 86.4 °F 53.09 °F 29.96 in SW 8 mph 10 mph 32% 0 in 689.00 W/m2
15:44 86.4 °F 53.09 °F 29.96 in South 9 mph 10 mph 32% 0 in 675.00 W/m2
15:49 86.4 °F 53.09 °F 29.96 in SSW 10 mph 12 mph 32% 0 in 454.00 W/m2
15:54 86.4 °F 53.09 °F 29.96 in SW 6 mph 10 mph 32% 0 in 584.00 W/m2
15:59 86.4 °F 53.93 °F 29.96 in SSE 2 mph 8 mph 33% 0 in 647.00 W/m2
16:04 86.4 °F 53.09 °F 29.96 in SSW 3 mph 11 mph 32% 0 in 526.00 W/m2
16:09 86.4 °F 54.74 °F 29.96 in SSW 7 mph 10 mph 34% 0 in 418.00 W/m2
16:15 86.4 °F 53.93 °F 29.96 in West 2 mph 12 mph 33% 0 in 640.00 W/m2
16:19 86.3 °F 53.84 °F 29.96 in WSW 1 mph 7 mph 33% 0 in 320.00 W/m2
16:24 86.1 °F 55.28 °F 29.96 in Calm   2 mph 35% 0 in 504.00 W/m2
16:29 85.6 °F 54.84 °F 29.96 in SW 7 mph 8 mph 35% 0 in 504.00 W/m2
16:34 85.4 °F 54.66 °F 29.96 in SSW 8 mph 8 mph 35% 0 in 687.00 W/m2
16:39 85.2 °F 55.26 °F 29.96 in Calm   1 mph 36% 0 in 661.00 W/m2
16:44 85 °F 51.87 °F 29.96 in Calm   10 mph 32% 0 in 545.00 W/m2
16:49 84.9 °F 52.62 °F 29.96 in SSW 9 mph 11 mph 33% 0 in 540.00 W/m2
16:54 84.9 °F 50.04 °F 29.96 in SSW 2 mph 11 mph 30% 0 in 550.00 W/m2
16:59 84.9 °F 49.13 °F 29.96 in SSW 3 mph 9 mph 29% 0 in 555.00 W/m2
17:04 85 °F 50.13 °F 29.96 in Calm   8 mph 30% 0 in 418.00 W/m2
17:09 85.1 °F 50.21 °F 29.96 in Calm   6 mph 30% 0 in 497.00 W/m2
17:14 85.1 °F 51.96 °F 29.96 in Calm   10 mph 32% 0 in 494.00 W/m2
17:19 85.1 °F 48.37 °F 29.97 in Calm   3 mph 28% 0 in 469.00 W/m2
17:24 85.2 °F 52.04 °F 29.96 in WSW 1 mph 5 mph 32% 0 in 478.00 W/m2
17:29 85 °F 51.87 °F 29.97 in SE 1 mph 10 mph 32% 0 in 452.00 W/m2
17:34 84.9 °F 53.43 °F 29.96 in SW 2 mph 2 mph 34% 0 in 424.00 W/m2
17:39 84.7 °F 47.06 °F 29.96 in South 6 mph 6 mph 27% 0 in 341.00 W/m2
17:44 84.7 °F 48.02 °F 29.96 in SSE 2 mph 7 mph 28% 0 in 109.00 W/m2
17:49 84.7 °F 48.96 °F 29.96 in SSW 5 mph 8 mph 29% 0 in 360.00 W/m2
17:54 84.5 °F 48.79 °F 29.96 in South 1 mph 11 mph 29% 0 in 350.00 W/m2
17:59 84.2 °F 49.44 °F 29.96 in SW 1 mph 1 mph 30% 0 in 346.00 W/m2
18:04 83.9 °F 50.91 °F 29.96 in Calm   4 mph 32% 0 in 339.00 W/m2
18:09 83.6 °F 51.49 °F 29.96 in Calm   1 mph 33% 0 in 339.00 W/m2
18:14 83.3 °F 50.39 °F 29.96 in SW 1 mph 6 mph 32% 0 in 56.00 W/m2
18:19 83.1 °F 53.41 °F 29.96 in SW 6 mph 7 mph 36% 0 in 283.00 W/m2
18:24 82.8 °F 53.89 °F 29.96 in Calm   3 mph 37% 0 in 269.00 W/m2
18:29 82.5 °F 52.12 °F 29.96 in Calm   3 mph 35% 0 in 251.00 W/m2
18:34 82.1 °F 53.28 °F 29.96 in Calm   4 mph 37% 0 in 230.00 W/m2
18:39 81.8 °F 48.24 °F 29.96 in SW 3 mph 7 mph 31% 0 in 218.00 W/m2
18:44 81.6 °F 53.56 °F 29.96 in SW 2 mph 2 mph 38% 0 in 181.00 W/m2
18:49 81.3 °F 53.29 °F 29.97 in SW 2 mph 3 mph 38% 0 in 185.00 W/m2
18:54 81 °F 54.43 °F 29.96 in SW 3 mph 3 mph 40% 0 in 162.00 W/m2
18:59 80.6 °F 54.07 °F 29.96 in Calm   2 mph 40% 0 in 142.00 W/m2
19:04 80.2 °F 54.39 °F 29.96 in Calm   1 mph 41% 0 in 127.00 W/m2
19:09 79.8 °F 54.03 °F 29.96 in Calm     41% 0 in 111.00 W/m2
19:14 79.4 °F 54.33 °F 29.96 in Calm   2 mph 42% 0 in 95.00 W/m2
19:19 79 °F 53.97 °F 29.96 in Calm   3 mph 42% 0 in 83.00 W/m2
19:24 78.7 °F 54.35 °F 29.96 in Calm     43% 0 in 70.00 W/m2
19:29 78.3 °F 53.99 °F 29.96 in Calm     43% 0 in 56.00 W/m2
19:34 77.9 °F 54.26 °F 29.96 in Calm     44% 0 in 44.00 W/m2
19:39 77.6 °F 53.36 °F 29.96 in Calm     43% 0 in 32.00 W/m2
19:44 77.3 °F 53.09 °F 29.96 in Calm     43% 0 in 23.00 W/m2
19:49 77 °F 52.82 °F 29.96 in Calm     43% 0 in 19.00 W/m2
19:54 76.8 °F 52.63 °F 29.96 in Calm     43% 0 in 18.00 W/m2
Foresthill Weather
 WU-history PHP script courtesy of   Juneau County Weather.
powered by Cumulus v1.9.3 (1059)
Ambient Weather VWS v14.00
Top Contact Website Map Copyright © 2007 - 2019 Foresthillweather.com Never base important decisions on this or any weather information obtained from the Internet